Theta_e
301 301 299 298 299 300 300 300 308 300 300 308 306 310 307 308 310 310 311 311 312 312 311 313 314 314 315 310 310 313 311 315 318 315 312 311 311 313 312 320 317 311 315 313
301 301 299 298 298 300 301 300 302 300 303 310 309 307 309 309 312 312 312 312 311 311 312 314 312 312 310 309 311 312 311 314 317 315 312 312 313 312 310 311 312 315 318 312
301 300 299 298 298 299 300 302 307 305 304 302 306 309 311 312 312 312 311 312 311 312 312 312 313 313 312 311 311 310 310 310 313 315 313 314 315 313 311 313 317 315 314 311
300 300 299 298 297 297 300 303 303 302 308 306 306 309 312 314 313 312 312 313 312 312 313 312 313 312 311 311 310 310 311 313 313 312 312 312 313 314 312 314 312 314 311 311
299 300 299 299 297 296 300 302 302 302 303 305 308 308 311 313 313 313 313 313 312 313 314 313 313 312 311 312 310 310 309 314 311 311 310 311 313 312 312 312 312 311 311 312
299 300 299 298 297 295 298 298 299 302 304 305 307 307 308 312 313 312 312 311 312 312 310 309 309 309 309 310 311 310 311 311 312 314 310 310 313 312 313 312 311 312 313 312
299 299 299 298 298 296 296 297 298 302 304 305 305 306 306 310 313 313 312 311 312 310 308 308 310 311 311 311 310 309 311 311 312 313 310 314 309 308 310 312 312 311 311 311
299 299 299 299 298 297 295 296 298 301 301 303 305 305 307 309 310 312 312 311 310 308 309 312 313 312 312 313 312 311 310 311 313 313 312 310 315 311 310 314 318 311 311 312
298 298 298 299 299 298 296 295 296 298 301 304 302 303 305 310 311 311 311 309 308 308 311 311 313 314 311 311 313 311 310 309 311 313 313 313 316 314 313 313 322 312 311 314
298 298 297 298 298 299 298 296 295 297 299 300 301 304 304 305 309 311 310 310 310 307 311 313 313 312 309 312 311 312 312 312 313 312 313 310 308 307 310 318 320 314 313 313
298 298 298 298 298 298 298 297 296 296 298 297 298 300 302 302 307 310 310 310 309 311 312 311 311 312 310 310 308 311 311 312 311 311 313 312 306 310 317 314 311 310 313 311
298 298 297 297 298 298 298 297 296 296 297 297 296 296 297 299 300 303 306 309 310 309 311 310 311 312 309 310 313 306 312 310 311 311 311 306 305 309 310 308 308 308 308 309
297 297 297 297 298 297 297 298 297 296 297 297 296 297 297 297 296 298 304 310 308 309 306 309 309 311 310 312 312 310 308 306 310 309 309 309 308 308 307 307 308 307 307 308
297 297 297 297 295 296 297 297 297 296 296 296 297 300 300 302 303 298 299 304 307 307 308 310 311 311 307 310 309 310 310 307 310 310 309 309 308 307 309 309 309 309 307 306
297 297 297 296 295 296 296 296 296 296 296 297 297 296 298 299 305 301 299 301 304 309 312 313 313 311 309 308 309 311 308 310 311 311 309 309 310 308 306 308 308 306 305 306
296 296 296 295 295 296 296 296 295 295 296 297 297 299 301 304 305 304 303 304 307 310 313 313 312 309 310 312 312 308 308 307 306 309 307 308 308 307 304 305 304 304 304 303
296 297 297 296 296 297 294 296 296 296 296 297 298 302 304 305 307 308 309 308 310 311 311 312 312 311 310 311 310 309 308 307 305 305 304 308 305 305 302 303 302 301 301 301
297 297 297 296 296 297 297 295 296 295 295 296 300 303 307 307 310 311 309 310 309 310 310 310 311 310 310 312 310 305 303 302 303 302 301 302 301 302 303 303 301 302 302 301
296 294 296 297 297 297 295 296 296 295 296 299 301 306 310 306 309 309 309 309 309 309 310 310 309 311 311 310 309 306 301 301 301 299 300 301 302 301 301 300 301 302 303 302
292 297 297 298 296 296 296 296 296 295 296 296 300 303 309 307 308 310 309 309 310 310 309 308 310 310 304 300 299 298 297 297 298 300 302 300 300 299 299 299 300 300 301 302
291 293 297 294 295 295 296 299 299 299 301 300 302 304 307 306 309 309 308 308 306 311 309 311 310 310 303 297 297 295 294 294 296 297 297 298 298 298 298 299 300 300 301 301
294 293 293 292 295 297 299 301 301 302 304 305 305 305 305 306 306 308 307 307 305 309 306 308 310 305 297 296 294 294 294 295 296 295 296 296 296 296 297 299 299 298 298 299
293 294 295 297 299 301 303 306 307 306 305 303 304 306 306 306 306 304 305 308 309 305 309 308 306 298 295 295 294 294 294 294 294 293 293 293 294 294 295 295 295 294 295 294
296 298 300 301 303 303 305 304 303 300 299 300 304 304 306 305 305 305 308 308 306 309 309 309 302 298 295 294 293 294 293 292 292 292 292 291 291 292 293 293 293 293 294 292
295 297 301 301 299 299 298 297 298 298 297 301 303 303 304 303 305 304 307 309 310 308 309 306 298 295 294 294 293 292 291 291 291 291 291 291 290 290 290 290 290 291 291 292
294 295 296 298 298 299 298 298 298 295 296 299 300 303 306 307 307 308 310 309 309 308 303 297 294 294 293 292 291 290 288 288 289 290 290 290 289 289 289 289 287 288 289 289
290 293 294 295 297 297 297 297 297 294 298 303 302 305 305 302 306 307 305 307 305 299 293 292 293 292 290 288 288 286 287 287 287 287 288 288 289 289 289 289 287 286 286 288
Wind_Speed
23 27 30 33 33 36 17 6 1 12 12 3 2 3 8 5 5 1 3 4 6 3 3 6 5 4 2 6 3 5 3 5 5 3 3 1 1 2 1 2 3 3 2 3
24 25 29 32 32 31 10 5 3 8 6 4 5 6 5 3 8 6 5 5 6 3 4 4 5 4 2 6 3 2 4 4 6 4 2 1 3 3 3 5 2 3 2 4
23 24 27 31 33 29 8 3 3 3 3 1 4 5 4 6 4 4 3 4 2 3 7 7 4 5 5 5 6 9 3 3 2 2 4 5 5 8 9 3 2 4 2 3
20 22 25 29 33 24 7 4 3 2 4 4 8 3 6 4 6 6 8 5 8 4 3 3 4 4 3 4 5 3 2 4 6 7 5 2 2 7 10 4 3 3 4 4
18 18 21 24 30 22 8 4 3 3 3 7 9 9 7 8 6 7 5 5 8 6 4 4 3 4 1 1 3 2 1 4 5 3 3 3 3 5 9 8 6 8 5 12
17 19 19 20 24 23 6 6 5 3 4 7 5 5 6 8 5 3 5 3 5 11 6 4 3 3 5 3 2 2 2 4 1 2 1 1 2 6 9 7 5 9 7 4
17 17 16 17 17 20 10 4 3 3 3 4 5 7 8 11 8 3 5 5 2 3 4 1 6 11 11 10 8 2 4 3 1 2 1 0 3 3 4 9 6 10 5 6
14 15 15 14 13 13 15 6 5 3 5 6 4 10 7 8 4 3 3 5 3 3 1 0 2 2 2 6 8 8 3 3 3 1 1 2 1 2 4 3 2 6 10 6
13 14 14 13 12 11 12 5 7 2 4 0 6 6 4 3 5 2 2 3 4 2 2 0 0 1 2 2 2 6 7 6 2 1 1 1 3 3 1 1 4 4 6 3
12 12 13 13 11 10 10 5 8 2 3 4 4 2 3 5 2 3 3 6 4 2 0 1 0 2 1 3 3 2 2 2 1 1 1 2 3 1 2 3 4 5 3 6
11 12 12 12 11 10 9 7 6 1 3 9 8 6 7 4 2 3 6 3 1 1 1 1 1 1 2 1 1 2 4 4 2 2 2 2 4 3 2 4 3 2 2 3
12 12 13 12 11 9 9 5 6 6 6 6 12 21 20 15 13 4 4 3 2 2 1 1 1 1 2 1 1 2 2 2 0 4 1 2 1 2 1 2 7 5 4 0
13 13 14 13 10 9 9 9 7 5 3 8 5 8 12 15 24 19 3 1 2 1 1 1 1 1 1 2 1 1 3 3 2 2 3 5 3 2 3 1 2 3 4 2
13 14 15 14 14 12 11 10 7 5 4 4 5 4 7 6 9 23 29 5 4 2 1 1 1 1 3 1 1 3 1 6 3 4 7 6 5 1 5 5 3 2 2 2
15 16 17 16 15 15 14 14 17 15 5 3 7 20 10 10 12 15 19 17 5 2 2 2 2 1 2 1 1 4 5 5 4 3 2 3 1 5 5 3 3 3 3 2
16 19 19 17 16 16 10 3 3 15 17 1 4 5 5 7 11 12 14 11 5 2 2 2 2 1 2 3 3 3 7 5 3 1 2 5 8 3 6 5 5 4 3 2
17 19 20 20 18 16 5 3 2 6 14 2 4 4 4 8 7 4 3 9 3 2 1 1 1 2 3 3 6 3 6 5 3 1 3 3 1 2 10 7 6 4 3 3
18 22 24 22 15 9 3 11 3 13 4 1 3 4 3 7 4 3 3 2 2 2 1 1 2 2 3 4 6 3 4 2 3 3 1 4 7 7 5 6 5 5 4 3
21 23 14 4 2 2 3 5 13 12 3 2 3 3 1 2 1 2 2 2 3 1 2 3 3 4 6 4 6 6 3 1 1 4 5 6 4 6 7 7 6 6 7 6
16 4 1 1 1 4 7 4 1 2 3 3 3 3 2 2 4 2 3 2 2 2 3 2 3 3 2 4 4 3 1 1 3 3 2 3 8 8 8 10 9 9 10 9
6 4 1 5 4 2 2 3 3 4 3 4 3 4 2 2 2 2 2 2 1 2 2 2 2 2 3 4 4 2 2 2 3 4 6 7 9 10 10 11 10 10 12 10
5 9 9 4 2 3 3 3 3 5 4 3 3 3 4 1 2 2 2 2 2 3 2 2 3 2 4 3 2 2 2 3 4 5 6 7 7 9 9 8 8 11 12 10
2 3 2 2 3 4 4 4 3 3 2 1 1 1 3 2 1 2 2 3 3 2 2 3 0 5 4 3 2 2 4 4 5 5 6 7 8 8 8 7 8 8 5 3
1 2 4 3 3 3 2 3 3 2 2 3 1 1 1 2 2 2 3 2 2 3 3 3 3 6 5 3 3 2 3 4 5 6 7 7 8 8 8 9 9 8 5 4
2 2 4 3 3 3 3 3 3 2 3 3 0 1 1 1 2 2 1 3 3 3 2 1 4 7 6 4 3 2 3 4 4 6 6 8 8 8 8 11 11 9 7 5
2 3 3 3 3 2 3 2 3 3 4 2 1 1 1 1 1 2 3 2 3 1 1 2 5 6 5 4 2 2 3 4 5 6 7 8 9 9 8 9 11 12 10 8
2 3 3 4 4 4 3 2 3 5 3 2 1 1 2 1 1 2 3 2 0 1 2 3 4 5 6 4 3 3 4 5 6 7 8 9 9 8 10 8 12 10 10 9
Wind_Direction
347 348 349 350 352 351 355 341 5 343 358 30 24 2 328 297 329 135 294 317 64 73 76 53 73 89 20 359 347 50 35 103 106 88 39 92 71 159 221 249 164 54 352 109
346 349 350 350 354 358 345 345 300 344 357 40 359 327 325 288 351 12 358 8 40 35 53 95 74 78 354 346 18 80 146 115 122 143 172 119 226 173 118 104 97 177 211 107
348 351 351 352 353 357 358 327 344 356 41 61 330 333 339 338 335 334 350 10 15 39 47 45 115 108 34 30 65 49 73 82 31 105 77 130 177 188 179 139 159 151 226 88
348 351 353 354 355 4 16 11 36 12 355 346 323 289 321 353 11 342 9 33 19 27 72 66 85 80 102 57 10 53 39 82 78 64 84 50 180 191 187 175 169 222 90 151
345 349 356 358 358 7 52 9 350 339 304 327 339 3 351 354 29 9 14 65 32 52 70 19 148 137 153 108 70 68 42 126 159 138 136 205 205 196 200 207 221 248 254 284
347 347 354 2 4 17 26 348 314 289 323 356 356 351 320 323 319 78 39 357 69 62 29 360 21 59 80 100 128 114 83 148 169 91 356 238 216 227 191 185 209 215 218 240
347 346 348 358 7 10 10 349 300 314 311 355 344 323 322 335 5 45 10 27 81 91 314 298 99 85 82 70 50 33 121 99 37 118 246 257 78 58 210 211 230 214 239 267
344 344 347 345 358 359 8 3 359 330 306 325 317 336 330 331 358 38 30 36 9 307 272 157 124 79 82 50 41 38 51 110 105 207 216 337 144 160 160 182 77 194 215 246
333 338 338 341 343 343 356 4 6 321 313 94 332 318 304 311 341 356 33 8 345 331 34 9 148 85 79 146 114 45 68 71 38 108 175 175 87 120 113 242 146 129 174 345
325 330 333 337 337 330 328 318 342 298 283 296 342 317 320 303 316 298 330 344 351 353 346 82 129 121 333 163 194 172 56 44 194 167 296 263 240 318 157 223 94 152 198 321
324 327 328 324 325 333 322 295 306 293 282 285 264 269 273 318 316 357 351 287 164 323 79 280 121 189 124 198 106 188 185 156 172 168 222 205 154 137 224 58 80 9 270 297
320 323 322 322 324 321 321 277 279 262 241 273 283 270 257 244 250 312 305 307 299 339 77 186 156 159 181 211 180 194 214 245 195 225 133 44 179 303 300 283 281 275 264 188
316 316 318 318 315 314 311 281 283 268 274 284 263 249 269 242 239 221 246 239 322 255 323 147 94 224 199 213 203 226 209 183 240 257 171 228 255 293 265 303 300 292 277 289
312 315 316 314 310 303 296 273 260 228 275 284 289 314 280 259 236 204 214 287 319 282 243 253 230 251 213 225 19 256 15 164 212 255 268 259 190 357 360 329 338 310 308 285
311 310 312 311 306 302 295 284 256 236 210 283 295 304 276 224 200 194 208 230 264 249 226 216 228 89 174 152 259 236 189 203 211 270 60 331 104 8 3 338 346 341 330 314
312 311 310 307 301 299 294 282 244 226 213 294 284 300 265 188 187 189 196 204 225 248 267 229 194 292 228 220 240 209 186 198 204 260 335 294 300 202 24 342 333 341 334 337
308 307 307 301 298 294 198 214 260 183 188 227 272 263 234 197 178 190 184 193 200 238 261 255 236 229 208 251 244 250 190 180 184 163 322 260 32 341 322 303 296 304 294 289
312 310 307 297 288 275 209 207 202 157 140 228 264 262 253 178 166 187 158 166 172 205 209 137 215 180 211 251 248 160 162 216 235 176 308 283 295 298 322 332 304 296 286 292
319 315 310 275 225 232 259 187 182 179 214 266 247 271 191 176 195 111 115 166 199 142 216 204 182 192 222 230 203 190 144 200 225 297 297 285 272 310 314 315 298 284 285 285
330 336 345 269 244 244 141 115 145 196 211 226 255 275 264 188 176 118 144 152 201 210 218 159 220 247 87 102 76 83 85 329 325 309 311 320 303 301 297 296 289 281 282 279
10 9 300 325 125 210 229 224 207 181 230 214 234 247 265 146 165 122 223 152 143 228 175 237 235 239 126 126 115 71 21 348 299 291 286 277 273 287 293 296 293 289 284 273
295 293 293 273 238 213 237 211 198 206 239 198 217 222 199 212 162 159 155 165 156 236 125 227 249 107 119 104 71 39 13 329 312 305 304 303 298 300 298 295 297 301 295 281
295 184 246 223 217 240 231 220 200 220 230 333 213 194 143 155 95 89 143 184 215 116 206 234 259 130 126 112 102 99 29 11 3 356 347 337 328 327 331 326 330 327 325 332
300 272 275 237 214 246 299 333 306 304 291 308 277 150 165 125 171 149 206 166 156 226 230 222 149 159 137 113 76 90 37 23 19 12 3 0 354 346 351 355 349 343 352 349
262 276 252 257 344 281 302 293 293 309 300 296 239 83 60 101 157 188 188 197 231 229 249 108 143 141 134 120 98 70 31 10 14 7 5 2 2 0 356 4 1 6 4 359
252 245 276 290 290 323 322 328 312 352 320 286 338 63 191 195 227 206 208 232 235 236 191 126 137 135 127 129 114 60 25 16 13 10 9 10 12 6 356 2 9 6 7 4
276 248 250 265 276 270 304 325 326 318 318 337 320 222 220 349 210 233 197 221 272 155 151 138 138 148 152 137 110 60 35 29 17 8 9 3 1 9 17 12 1 1 355 353